{"data":{"norad_id":46535,"intl_designator":"2020-070D","name":"STARLINK-1663","alt_names":[],"object_type":"PAYLOAD","status":"ACTIVE","operator":null,"country":"US","launch_date":"2020-10-06","launch_site_code":"AFETR","launch_vehicle":null,"mission":null,"orbit_class":"UNKNOWN","rcs_meters":null,"size_class":null,"mass_kg":null,"dimensions":null,"purposes":["comms"],"wikipedia_slug":null,"has_3d_model":false,"image_url":null,"decayed_at":null,"tle_current":{"epoch":"2026-05-25T04:34:52.883040Z","epoch_age_seconds":68928,"freshness":"FRESH","line1":"1 46535U 20070D   26145.19088985  .00170160  00000+0  78711-3 0  9999","line2":"2 46535  53.0335 115.1070 0007199  60.6025 299.5715 15.82465479312122","mean_motion":15.82465479,"eccentricity":0.0007199,"inclination_deg":53.0335,"raan_deg":115.107,"arg_perigee_deg":60.6025,"mean_anomaly_deg":299.5715,"bstar":0.00078711,"rev_number":31212,"period_min":90.997245697263,"perigee_km":318.64636731623,"apogee_km":328.29534230559,"semimajor_km":6701.6078548109,"source":"CELESTRAK","updated_at":"2026-05-25T13:38:16.474733Z"}}}